Weather History for Cape Girardeau, MO

Change the Weather History Date:

Tuesday, May 14, 2013

  Actual Average Record
Temperature  
Mean Temperature 70 °F 66 °F  
Max Temperature 86 °F 77 °F 93 °F (1962)
Min Temperature 54 °F 55 °F 40 °F (2000)
Degree Days  
Heating Degree Days 0 2  
Month to date heating degree days 83 45  
Since 1 July heating degree days 4349 4363  
Cooling Degree Days 5 3  
Month to date cooling degree days 16 34  
Year to date cooling degree days 41 65  
Growing Degree Days 20 (Base 50)    
Moisture  
Dew Point 56 °F    
Average Humidity 62    
Maximum Humidity 83    
Minimum Humidity 40    
Precipitation  
Precipitation 0.00 in 0.19 in 2.31 in (1967)
Month to date precipitation 2.03 2.73  
Year to date precipitation 14.85 18.37  
Sea Level Pressure  
Sea Level Pressure 29.97 in    
Wind  
Wind Speed 10 mph (SSW)    
Max Wind Speed 22 mph    
Max Gust Speed 25 mph    
Visibility 10 miles    
Events      
T = Trace of Precipitation, MM = Missing Value Source: NWS Daily Summary

Daily Weather History Graph

Daily Weather History Graph

Search for Another Location

Airport:

Trip Planner

Search our weather history database for the weather conditions in past years. The results will help you decide how hot, cold, wet, or windy it might be!

Date:

Astronomy

May. 14, 2013 Rise Set
Actual Time 5:50 AM CDT 7:59 PM CDT
Civil Twilight 5:21 AM CDT 8:28 PM CDT
Nautical Twilight 4:45 AM CDT 9:04 PM CDT
Astronomical Twilight 4:07 AM CDT 9:42 PM CDT
Moon 9:29 AM CDT (5/14) 11:47 PM CDT (5/14)
Length of Visible Light 15h 07m
Length of Day
14h 09m
Waxing Crescent, 19% of the Moon is Illuminated
May 14
Waxing Crescent
May 17
First Quarter
May 24
Full
May 31
Last Quarter
Jun 8
New

Hourly Weather History & Observations

Time (CDT) Temp. Heat Index Dew Point Humidity Pressure Visibility Wind Dir Wind Speed Gust Speed Precip Events Conditions
12:53 AM 57.9 °F - 44.1 °F 60% 30.07 in 10.0 mi SSE 8.1 mph - N/A   Clear
1:53 AM 57.9 °F - 46.0 °F 65% 30.05 in 10.0 mi SSE 6.9 mph - N/A   Clear
2:53 AM 57.0 °F - 46.9 °F 69% 30.03 in 10.0 mi SSE 4.6 mph - N/A   Clear
3:53 AM 57.0 °F - 48.9 °F 74% 30.02 in 10.0 mi SE 4.6 mph - N/A   Clear
4:53 AM 55.0 °F - 50.0 °F 83% 30.02 in 10.0 mi SE 3.5 mph - N/A   Clear
5:53 AM 55.0 °F - 50.0 °F 83% 30.03 in 10.0 mi Calm Calm - N/A   Clear
6:53 AM 59.0 °F - 53.1 °F 81% 30.04 in 10.0 mi South 4.6 mph - N/A   Clear
7:53 AM 64.0 °F - 55.0 °F 73% 30.02 in 10.0 mi SSW 6.9 mph - N/A   Clear
8:53 AM 68.0 °F - 55.9 °F 65% 30.02 in 10.0 mi SSW 6.9 mph - N/A   Clear
9:53 AM 71.1 °F - 57.9 °F 63% 30.01 in 10.0 mi SSW 8.1 mph - N/A   Clear
10:53 AM 75.0 °F - 57.9 °F 55% 30.00 in 10.0 mi SSW 10.4 mph - N/A   Clear
11:53 AM 79.0 °F - 57.9 °F 48% 29.99 in 10.0 mi SW 12.7 mph - N/A   Clear
12:53 PM 81.0 °F 81.1 °F 57.9 °F 45% 29.97 in 10.0 mi SW 11.5 mph 21.9 mph N/A   Clear
1:53 PM 82.9 °F 83.2 °F 60.1 °F 46% 29.95 in 10.0 mi SSW 12.7 mph 19.6 mph N/A   Clear
2:53 PM 84.0 °F 84.0 °F 60.1 °F 44% 29.93 in 10.0 mi SSW 15.0 mph 23.0 mph N/A   Clear
3:53 PM 84.9 °F 85.0 °F 61.0 °F 44% 29.91 in 10.0 mi SSW 15.0 mph 24.2 mph N/A   Clear
4:53 PM 86.0 °F 86.1 °F 61.0 °F 43% 29.91 in 10.0 mi SSW 16.1 mph 24.2 mph N/A   Clear
5:53 PM 86.0 °F 85.4 °F 59.0 °F 40% 29.90 in 10.0 mi SSW 15.0 mph 25.3 mph N/A   Clear
6:53 PM 82.9 °F 83.2 °F 60.1 °F 46% 29.89 in 10.0 mi SSW 13.8 mph - N/A   Clear
7:53 PM 81.0 °F 81.3 °F 59.0 °F 47% 29.89 in 10.0 mi SSW 12.7 mph - N/A   Clear
8:53 PM 79.0 °F - 59.0 °F 50% 29.91 in 10.0 mi SSW 15.0 mph - N/A   Clear
9:53 PM 77.0 °F - 61.0 °F 58% 29.92 in 10.0 mi SSW 16.1 mph - N/A   Clear
10:53 PM 75.0 °F - 61.0 °F 62% 29.93 in 10.0 mi SW 12.7 mph 21.9 mph N/A   Clear
11:53 PM 73.9 °F - 60.1 °F 62% 29.94 in 10.0 mi SW 11.5 mph - N/A   Clear